Regional Weather Roundup
Issued by NWS

Home | Current Version | Previous Version | Text Only | Print | Product List | Glossary Off
Versions: 1 2 3 4 5 6 7 8 9 10 11 12 13 14 15 16 17 18 19 20 21 22 23 24 25 26 27 28 29 30 31 32 33 34 35 36 37 38 39 40 41 42 43 44 45 46 47 48 49 50

000
ASUS43 KMPX 011910
RWRMN
WEATHER ROUNDUP FOR MINNESOTA
NATIONAL WEATHER SERVICE TWIN CITIES/CHANHASSEN MN
200 PM CDT WED JUL 01 2015


NOTE: "FAIR" INDICATES FEW OR NO CLOUDS BELOW 12,000 FEET WITH NO
SIGNIFICANT WEATHER AND/OR OBSTRUCTIONS TO VISIBILITY. N/A MEANS
CURRENT SKY AND/OR WEATHER CONDITIONS ARE NOT AVAILABLE.

MNZ060>063-068>070-012000-
   Twin Cities Metro

CITY           SKY/WX    TMP DP  RH WIND       PRES   REMARKS
TWIN CITIES    PTSUNNY   66  47  50 VRB6      30.02S
ST PAUL        PTSUNNY   66  50  56 VRB3      30.02S
CRYSTAL        PTSUNNY   70  46  42 VRB3      30.00F
BLAINE         MOSUNNY   72  48  43 SE6       30.01F
LAKEVILLE      CLOUDY    63  52  67 E6        30.02S
EDEN PRAIRIE   CLOUDY    67  49  52 VRB3      30.01S
SOUTH ST PAUL  PTSUNNY   65  49  54 S6        30.02S
LAKE ELMO      FAIR      70  52  52 SE3       30.02F
$$
MNZ001>005-007-008-013>017-022>024-027-028-012000-
   Northwest Minnesota

CITY           SKY/WX    TMP DP  RH WIND       PRES   REMARKS
BEMIDJI        PTSUNNY   75  59  58 N7        29.96F
HALLOCK        SUNNY     79  57  47 SE3       29.94S
ROSEAU         MOSUNNY   77  57  50 W3        29.95F
WARROAD        SUNNY     75  61  60 E7        29.96S
THIEF RVR FALL MOSUNNY   75  57  53 S7        29.96S
CROOKSTON      MOSUNNY   75  57  53 CALM      29.95F
FOSSTON        SUNNY     77  61  57 CALM      29.97S
DETROIT LAKES  SUNNY     73  59  60 S8        29.99F
MOORHEAD       SUNNY     73  61  64 S9        29.97S
PARK RAPIDS    MOSUNNY   75  57  53 S9        29.98F
MAHNOMEN       FAIR      74  60  60 SW3       29.97S
$$
MNZ006-009>011-018-025>026-012000-
   North Central Minnesota

CITY           SKY/WX    TMP DP  RH WIND       PRES   REMARKS
BAUDETTE       SUNNY     77  48  35 VRB3      29.96S
FLAG ISLAND    SUNNY     72  61  68 S8        29.94F
INTL FALLS     SUNNY     74  51  44 VRB5      29.97S
WASKISH        SUNNY     75  63  64 W7        29.97S
BIG FORK       MOSUNNY  N/A N/A N/A CALM      29.98S
LONGVILLE      MOSUNNY   75  57  53 S6        29.98F
GRAND RAPIDS   PTSUNNY   72  55  56 S8        30.00S
CRANE LAKE     PTSUNNY   72  52  49 NW2       29.99F
ORR            PTSUNNY   73  50  43 CALM      29.96S
COOK           PTSUNNY   73  52  46 W3        29.99S
WALKER         CLOUDY    73  56  56 S5        29.96F
$$
MNZ012-019>021-037-012000-
   Northeast Minnesota

CITY           SKY/WX    TMP DP  RH WIND       PRES   REMARKS
DULUTH         PTSUNNY   69  53  56 S8        30.01F
ELY            MOSUNNY   72  50  46 W5        30.00S
HIBBING        MOSUNNY   73  53  49 CALM      29.99F
EVELETH        PTSUNNY   70  54  56 CALM      30.01S
DULUTH HARBOR  MOSUNNY   64  57  77 E6        30.02S
TWO HARBORS    SUNNY     72  57  60 S6        30.00S
SILVER BAY     SUNNY     68  50  52 SE9       30.00S
GRAND MARAIS     N/A     53  46  77 SW6       30.03S
G MARAIS ARPRT PTSUNNY   63  45  51 S7        30.04R
$$
MNZ029>031-032-039>041-046>048-054>057-064-012000-
   West Central Minnesota

CITY           SKY/WX    TMP DP  RH WIND       PRES   REMARKS
FERGUS FALLS   SUNNY     72  57  60 S8G16     29.98S
WHEATON        SUNNY     68  57  68 SE9       30.00R
MORRIS         SUNNY     73  57  56 SE9       29.98S
ALEXANDRIA     SUNNY     70  50  49 SE9       30.02S
ELBOW LAKE     FAIR      71  56  61 SE8       29.99S
WADENA         SUNNY     72  55  56 S8        29.99F
GLENWOOD       SUNNY     70  52  52 SE6       30.01F
APPLETON       MOSUNNY   70  55  60 SE7       29.98S
BENSON         MOSUNNY   72  54  53 S7        29.99S
ORTONVILLE     MOSUNNY   70  57  64 SE8       29.98S
MADISON        MOSUNNY   68  57  68 SE8       29.98S
WILLMAR        FAIR      70  54  56 E9        30.01S
$$
MNZ033>034-036-042>043-049>051-058-059-012000-
   Central Minnesota

CITY           SKY/WX    TMP DP  RH WIND       PRES   REMARKS
ST CLOUD       MOSUNNY   70  46  42 SE8       30.01F
SAUK CENTRE    FAIR      69  53  56 SE6       30.01F
PAYNESVILLE    MOSUNNY   66  48  53 E6        30.02S
AITKIN         MOSUNNY   73  55  53 SW7       29.99F
PINE RIVER       N/A     73  57  56 S9        30.02S
BRAINERD       MOSUNNY   74  51  44 S7        30.00F
STAPLES        SUNNY     73  52  46 S9        30.00F
LONG PRAIRIE   FAIR      68  52  56 SE5       30.02S
LITTLE FALLS   SUNNY     72  46  40 S8        30.01F
LITCHFIELD     MOSUNNY   70  52  52 E8        30.01F
BUFFALO        PTSUNNY   66  47  48 E3        30.03S
MAPLE LAKE     PTSUNNY   68  52  56 SE3       30.02F
$$
MNZ037-044-045-052-053-012000-
   East Central Minnesota

CITY           SKY/WX    TMP DP  RH WIND       PRES   REMARKS
PRINCETON      MOSUNNY   73  50  43 CALM      30.01F
MORA           SUNNY     70  50  49 SW3       30.03S
CAMBRIDGE      SUNNY     73  54  49 SE3       29.99F
RUSH CITY      SUNNY     71  52  50 CALM      30.01F
MOOSE LAKE     SUNNY     72  59  64 S5        29.99F
HINCKLEY       FAIR      72  52  49 S5        30.01F
CLOQUET        MOSUNNY   70  54  56 SE6       30.01S
MCGREGOR       PTSUNNY   72  54  53 SW6       30.01S
$$
MNZ071>073-080-081-089-090-097-098-012000-
   Southwest Minnesota

CITY           SKY/WX    TMP DP  RH WIND       PRES   REMARKS
MONTEVIDEO     MOSUNNY   70  57  64 S6        30.00R
GRANITE FALLS  CLOUDY    67  56  67 E6        30.01R
CANBY          CLOUDY    67  59  74 SE6       29.99S
MARSHALL       MOSUNNY   70  55  60 S12       29.97S
REDWOOD FALLS  MOSUNNY   69  54  58 E8        29.99R
OLIVIA         PTSUNNY   64  54  68 SE7       30.00R
PIPESTONE      MOSUNNY   72  57  60 SE12      29.97R
WINDOM         MOSUNNY   70  48  46 SE10      29.98S
WORTHINGTON    PTSUNNY   72  55  56 E12G18    29.97S
JACKSON        PTSUNNY   72  50  46 SE13      29.99R
TRACY          CLOUDY    69  57  65 SE7       29.98S
SLAYTON        CLOUDY    69  55  60 E12       29.99S
$$
MNZ065>067-074>077-082>085-091>093-012000-
   South Central Minnesota

CITY           SKY/WX    TMP DP  RH WIND       PRES   REMARKS
MANKATO        CLOUDY    64  54  68 E8        30.00S
NEW ULM        PTSUNNY   64  57  77 E8        29.99S
ST JAMES       PTSUNNY   64  61  88 E9        29.99S
FAIRMONT       CLOUDY    66  54  63 SE9       29.98S
GLENCOE        CLOUDY    70  52  52 E9        30.00S
FARIBAULT      CLOUDY    63  52  67 NE5       30.02S
OWATONNA       CLOUDY    64  52  63 E6        30.01S
WASECA         CLOUDY    63  54  72 E5        30.02S
ALBERT LEA     CLOUDY    66  50  55 E8        29.99S
$$
MNZ078>079-086>088-094>096-012000-
   Southeast Minnesota

CITY           SKY/WX    TMP DP  RH WIND       PRES   REMARKS
ROCHESTER      CLOUDY    62  51  67 E5        30.02F
RED WING       PTSUNNY   68  48  49 CALM      30.00S
STANTON        CLOUDY    64  52  63 NE6       30.00F
DODGE CENTER   CLOUDY    63  52  67 E8        30.01S
WINONA         CLOUDY    68  48  49 E5        30.00F
AUSTIN         CLOUDY    63  52  67 NE5       30.00S
PRESTON        CLOUDY    60  48  64 E7        30.01F
$$
ABBREVIATIONS USED IN REMARKS
   TC - TEMPERATURES IN CELSIUS
  WCI - WIND CHILL INDEX
   HX - HEAT INDEX
  VSB - VISIBILITY
$$



USA.gov is the U.S. government's official web portal to all federal, state and local government web resources and services.